Regional Weather Roundup
Issued by NWS

Home | Current Version | Previous Version | Text Only | Print | Product List | Glossary On
Versions: 1 2 3 4 5 6 7 8 9 10 11 12 13 14 15 16 17 18 19 20 21 22 23 24 25 26 27 28 29 30 31 32 33 34 35 36 37 38 39 40 41 42 43 44 45 46 47 48 49 50
000
ASUS43 KBIS 221910
RWRND

NORTH DAKOTA REGIONAL WEATHER ROUNDUP
NATIONAL WEATHER SERVICE BISMARCK ND
200 PM CDT SUN APR 22 2018

NOTE: "FAIR" INDICATES FEW OR NO CLOUDS BELOW 12,000 FEET WITH NO
SIGNIFICANT WEATHER AND/OR OBSTRUCTIONS TO VISIBILITY.


NDZ001>003-009>011-017-222000-
NORTHWEST NORTH DAKOTA

CITY           SKY/WX    TMP DP  RH WIND       PRES   REMARKS
WILLISTON      SUNNY     63  29  27 SW7       30.12F
MINOT          MOSUNNY   62  30  29 MISG      30.11F
MINOT AFB      MOSUNNY   60  30  32 W5        30.09F
$$

NDZ018>021-031>035-040>046-222000-
SOUTHWEST NORTH DAKOTA

CITY           SKY/WX    TMP DP  RH WIND       PRES   REMARKS
BISMARCK       SUNNY     66  39  37 S10       30.12F
DICKINSON      SUNNY     64  23  21 NW6       30.10F
GARRISON         N/A     60  37  42 N6        30.13S
HETTINGER ARPT SUNNY     65  33  30 N9        30.12F
$$

NDZ004>008-012>016-024-026-027-054-222000-
NORTHEAST NORTH DAKOTA

CITY           SKY/WX    TMP DP  RH WIND       PRES   REMARKS
GRAND FORKS    FAIR      58  44  60 S20G29    30.17F
GRND FRKS AFB  FAIR      61  38  43 S21G29    30.16F
DEVILS LAKE    PTSUNNY   59  41  51 SW14      30.14F
$$

NDZ022-023-025-028>030-036>039-047>053-222000-
SOUTHEAST NORTH DAKOTA

CITY           SKY/WX    TMP DP  RH WIND       PRES   REMARKS
FARGO          FAIR      62  38  40 S22G31    30.21F
JAMESTOWN      SUNNY     62  37  39 S20G26    30.16S
$$





USA.gov is the U.S. government's official web portal to all federal, state and local government web resources and services.